Starlink 31501

operational
NORAD ID: 59359 Int'l Des: 2024-060 Owner: SPXS Country: US Constellation: starlink
LEOCIRCULAR

About Starlink 31501

Description loading...

Live Position

Loading 3D Globe...

Upcoming Passes

Altitude History

Altitude vs Time

uPlot chart will show altitude changes over time

Two-Line Element Set

1 59359U 24060M 26036.15071552 .00002484 00000-0 99821-4 0 9997
2 59359 43.0009 83.8583 0001880 265.0645 94.9992 15.27563271105084
Epoch: Feb 5, 2026 • Age: 16 hours

Current Status

Altitude 483.9 km
Velocity 7.63 km/s
Sub-Earth Point 26.03°N, 153.84°E
Launch Date Mar 31, 2024
Age 1.8 years
Type internet

Technical Details

Classification Payload
Mass 730.00 kg
Dry Mass 700.00 kg
Total Mass 730.00 kg
Length 0.30 m
Diameter 4.10 m
Span 29.00 m
Shape Box + pan
Manufacturer SPXS
Bus Type Starlink V2M
Phase Status In Orbit
Owner/State SPXS/US

Large Constellations

Loading constellations...